| time (UTC) | temp F | wind direction | speed MPH | gust MPH | rain 1hr in | rain 24hr in | rain mn in | humidity % | barometer mb |
| 20260510044600 | 76 | 44 | 1.0 | 7.0 | 0.01 | 0.06 | 0.06 | 95 | 1011.9 |
| 20260510043104 | 76 | 81 | 1.0 | 5.0 | 0.01 | 0.06 | 0.06 | 95 | 1012.1 |
| 20260510041557 | 76 | 73 | 1.0 | 4.0 | 0.01 | 0.06 | 0.06 | 96 | 1012.1 |
| 20260510040057 | 76 | 58 | 0.0 | 3.0 | 0.03 | 0.05 | 0.05 | 95 | 1012.2 |
| 20260510034557 | 76 | 77 | 0.0 | 3.0 | 0.05 | 0.05 | 0.05 | 95 | 1012.0 |
| 20260510033155 | 77 | 75 | 0.0 | 1.0 | 0.05 | 0.05 | 0.05 | 95 | 1011.6 |
| 20260510031555 | 77 | 91 | 0.0 | 5.0 | 0.05 | 0.05 | 0.05 | 94 | 1012.1 |
| 20260510030053 | 78 | 92 | 0.0 | 5.0 | 0.02 | 0.02 | 0.02 | 92 | 1012.2 |
| 20260510024552 | 78 | 74 | 1.0 | 6.0 | 0.00 | 0.00 | 0.00 | 91 | 1011.7 |
| 20260510023048 | 78 | 85 | 1.0 | 5.0 | 0.00 | 0.00 | 0.00 | 89 | 1011.3 |
| 20260510021550 | 79 | 49 | 0.0 | 5.0 | 0.00 | 0.00 | 0.00 | 88 | 1011.0 |
| 20260510020044 | 80 | 82 | 1.0 | 5.0 | 0.00 | 0.00 | 0.00 | 83 | 1010.6 |
| 20260510014544 | 80 | 86 | 0.0 | 5.0 | 0.00 | 0.00 | 0.00 | 78 | 1010.1 |
| 20260510013049 | 81 | 77 | 1.0 | 3.0 | 0.00 | 0.00 | 0.00 | 77 | 1009.7 |
| 20260510011545 | 82 | 152 | 0.0 | 2.0 | 0.00 | 0.00 | 0.00 | 74 | 1009.3 |
| 20260510010041 | 83 | 113 | 0.0 | 5.0 | 0.00 | 0.00 | 0.00 | 72 | 1008.8 |
| 20260510004544 | 84 | 174 | 0.0 | 1.0 | 0.00 | 0.00 | 0.00 | 66 | 1008.7 |
| 20260510003041 | 84 | 190 | 0.0 | 3.0 | 0.00 | 0.00 | 0.00 | 64 | 1008.7 |
| 20260510001542 | 85 | 70 | 0.0 | 4.0 | 0.00 | 0.00 | 0.00 | 66 | 1008.5 |
| 20260510000047 | 85 | 83 | 0.0 | 4.0 | 0.00 | 0.00 | 0.00 | 67 | 1008.4 |
| 20260509234538 | 86 | 66 | 0.0 | 4.0 | 0.00 | 0.00 | 0.00 | 68 | 1008.2 |
| 20260509233037 | 86 | 92 | 0.0 | 4.0 | 0.00 | 0.00 | 0.00 | 71 | 1008.1 |
| 20260509231539 | 87 | 79 | 0.0 | 3.0 | 0.00 | 0.00 | 0.00 | 72 | 1008.2 |
| 20260509230036 | 88 | 77 | 1.0 | 4.0 | 0.00 | 0.00 | 0.00 | 71 | 1008.2 |
| 20260509224535 | 87 | 82 | 0.0 | 6.0 | 0.00 | 0.00 | 0.00 | 75 | 1007.9 |
| 20260509223035 | 87 | 71 | 2.0 | 4.0 | 0.00 | 0.00 | 0.00 | 74 | 1008.0 |
| 20260509221536 | 88 | 99 | 1.0 | 5.0 | 0.00 | 0.00 | 0.00 | 73 | 1007.8 |
| 20260509220034 | 88 | 62 | 0.0 | 3.0 | 0.00 | 0.00 | 0.00 | 70 | 1007.8 |
| 20260509214534 | 89 | 83 | 0.0 | 2.0 | 0.00 | 0.00 | 0.00 | 66 | 1007.8 |
| 20260509213034 | 90 | 58 | 0.0 | 3.0 | 0.00 | 0.00 | 0.00 | 59 | 1007.8 |
| 20260509211530 | 90 | 253 | 0.0 | 3.0 | 0.00 | 0.00 | 0.00 | 59 | 1007.8 |
| 20260509210033 | 90 | 255 | 1.0 | 4.0 | 0.00 | 0.00 | 0.00 | 58 | 1007.9 |
| 20260509204527 | 90 | 283 | 1.0 | 4.0 | 0.00 | 0.00 | 0.00 | 58 | 1008.0 |
| 20260509203026 | 89 | 68 | 0.0 | 0.0 | 0.00 | 0.00 | 0.00 | 61 | 1008.1 |
| 20260509201523 | 89 | 342 | 0.0 | 2.0 | 0.00 | 0.00 | 0.00 | 62 | 1008.3 |
| 20260509200019 | 89 | 352 | 1.0 | 3.0 | 0.00 | 0.00 | 0.00 | 64 | 1008.6 |
| 20260509194519 | 89 | 230 | 0.0 | 3.0 | 0.00 | 0.00 | 0.00 | 64 | 1008.6 |
| 20260509193026 | 89 | 86 | 0.0 | 4.0 | 0.00 | 0.00 | 0.00 | 63 | 1008.6 |
| 20260509191520 | 89 | 309 | 1.0 | 3.0 | 0.00 | 0.00 | 0.00 | 63 | 1008.8 |
| 20260509190015 | 88 | 70 | 0.0 | 3.0 | 0.00 | 0.00 | 0.00 | 69 | 1008.9 |
| 20260509184527 | 87 | 322 | 1.0 | 3.0 | 0.00 | 0.00 | 0.00 | 68 | 1008.9 |
| 20260509183007 | 85 | 260 | 1.0 | 4.0 | 0.00 | 0.00 | 0.00 | 73 | 1009.3 |
| 20260509181503 | 85 | 209 | 0.0 | 4.0 | 0.00 | 0.00 | 0.00 | 76 | 1009.6 |
| 20260509180106 | 84 | 254 | 0.0 | 4.0 | 0.00 | 0.00 | 0.00 | 78 | 1009.9 |
| 20260509174620 | 83 | 253 | 1.0 | 5.0 | 0.00 | 0.00 | 0.00 | 82 | 1010.4 |
| 20260509173059 | 82 | 252 | 1.0 | 4.0 | 0.00 | 0.00 | 0.00 | 82 | 1010.5 |
| 20260509171557 | 81 | 274 | 0.0 | 5.0 | 0.00 | 0.00 | 0.00 | 84 | 1010.5 |
| 20260509170100 | 82 | 198 | 0.0 | 2.0 | 0.00 | 0.00 | 0.00 | 84 | 1010.6 |
| 20260509164554 | 82 | 220 | 0.0 | 4.0 | 0.00 | 0.01 | 0.00 | 84 | 1010.7 |
| 20260509163056 | 82 | 225 | 0.0 | 1.0 | 0.00 | 0.01 | 0.00 | 84 | 1010.6 |
| 20260509161550 | 81 | 288 | 0.0 | 2.0 | 0.00 | 0.01 | 0.00 | 85 | 1010.5 |
| 20260509160047 | 81 | 212 | 0.0 | 3.0 | 0.00 | 0.01 | 0.00 | 86 | 1010.5 |
| 20260509154544 | 80 | 291 | 0.0 | 1.0 | 0.00 | 0.01 | 0.00 | 88 | 1010.7 |
| 20260509153052 | 79 | 150 | 0.0 | 3.0 | 0.00 | 0.01 | 0.00 | 90 | 1009.9 |
| 20260509151538 | 78 | 86 | 0.0 | 0.0 | 0.00 | 0.01 | 0.00 | 92 | 1010.2 |
| 20260509150036 | 77 | 53 | 0.0 | 2.0 | 0.00 | 0.01 | 0.00 | 92 | 1009.7 |
| 20260509144536 | 77 | 50 | 0.0 | 1.0 | 0.00 | 0.01 | 0.00 | 92 | 1010.3 |
| 20260509143035 | 78 | 181 | 0.0 | 2.0 | 0.00 | 0.01 | 0.00 | 93 | 1010.5 |
| 20260509141534 | 77 | 206 | 0.0 | 1.0 | 0.00 | 0.01 | 0.00 | 93 | 1010.2 |
| 20260509140031 | 77 | 278 | 1.0 | 3.0 | 0.00 | 0.01 | 0.00 | 96 | 1010.3 |
| 20260509134528 | 76 | 242 | 0.0 | 0.0 | 0.00 | 0.01 | 0.00 | 97 | 1010.3 |
| 20260509133028 | 76 | 239 | 0.0 | 0.0 | 0.00 | 0.01 | 0.00 | 98 | 1010.3 |
| 20260509131526 | 75 | 269 | 0.0 | 2.0 | 0.00 | 0.01 | 0.00 | 98 | 1010.6 |
| 20260509130032 | 75 | 252 | 0.0 | 3.0 | 0.00 | 0.01 | 0.00 | 98 | 1010.3 |
| 20260509124524 | 75 | 77 | 0.0 | 0.0 | 0.00 | 0.01 | 0.00 | 98 | 1010.4 |
| 20260509123024 | 75 | 76 | 0.0 | 0.0 | 0.00 | 0.01 | 0.00 | 98 | 1010.5 |
| 20260509121526 | 75 | 76 | 0.0 | 0.0 | 0.00 | 0.01 | 0.00 | 98 | 1010.2 |
| 20260509120022 | 75 | 76 | 0.0 | 0.0 | 0.00 | 0.01 | 0.00 | 98 | 1010.3 |
| 20260509114522 | 75 | 76 | 0.0 | 0.0 | 0.00 | 0.01 | 0.00 | 98 | 1010.4 |
| 20260509113025 | 74 | 76 | 0.0 | 0.0 | 0.00 | 0.01 | 0.00 | 98 | 1010.2 |
| 20260509111521 | 75 | 76 | 0.0 | 0.0 | 0.00 | 0.01 | 0.00 | 98 | 1010.3 |
| 20260509110019 | 74 | 76 | 0.0 | 0.0 | 0.00 | 0.01 | 0.00 | 98 | 1009.8 |
| 20260509104520 | 74 | 76 | 0.0 | 0.0 | 0.00 | 0.01 | 0.00 | 98 | 1009.7 |
| 20260509103019 | 74 | 76 | 0.0 | 0.0 | 0.00 | 0.01 | 0.00 | 98 | 1009.8 |
| 20260509101524 | 74 | 76 | 0.0 | 0.0 | 0.00 | 0.01 | 0.00 | 98 | 1009.6 |
| 20260509100022 | 74 | 76 | 0.0 | 0.0 | 0.00 | 0.01 | 0.00 | 98 | 1009.8 |
| 20260509094518 | 74 | 76 | 0.0 | 0.0 | 0.00 | 0.01 | 0.00 | 98 | 1009.4 |
| 20260509093017 | 74 | 76 | 0.0 | 0.0 | 0.00 | 0.01 | 0.00 | 98 | 1009.4 |
| 20260509091516 | 74 | 76 | 0.0 | 0.0 | 0.00 | 0.01 | 0.00 | 98 | 1009.1 |
| 20260509090027 | 74 | 76 | 0.0 | 0.0 | 0.00 | 0.01 | 0.00 | 98 | 1009.2 |
| 20260509084516 | 74 | 76 | 0.0 | 0.0 | 0.00 | 0.01 | 0.00 | 98 | 1009.3 |
| 20260509083029 | 74 | 76 | 0.0 | 0.0 | 0.00 | 0.01 | 0.00 | 98 | 1009.4 |
| 20260509081513 | 74 | 76 | 0.0 | 0.0 | 0.00 | 0.01 | 0.00 | 98 | 1009.5 |
| 20260509080011 | 73 | 76 | 0.0 | 0.0 | 0.00 | 0.01 | 0.00 | 98 | 1009.4 |
| 20260509074510 | 73 | 76 | 0.0 | 0.0 | 0.00 | 0.01 | 0.00 | 97 | 1009.9 |
| 20260509073017 | 73 | 76 | 0.0 | 0.0 | 0.00 | 0.01 | 0.00 | 97 | 1010.0 |
| 20260509071511 | 73 | 76 | 0.0 | 0.0 | 0.00 | 0.01 | 0.00 | 97 | 1010.0 |
| 20260509070008 | 73 | 76 | 0.0 | 0.0 | 0.00 | 0.01 | 0.00 | 97 | 1009.9 |
| 20260509064506 | 74 | 76 | 0.0 | 0.0 | 0.00 | 0.01 | 0.00 | 97 | 1009.8 |
| 20260509063013 | 74 | 76 | 0.0 | 0.0 | 0.00 | 0.01 | 0.00 | 97 | 1010.0 |
| 20260509061502 | 74 | 76 | 0.0 | 0.0 | 0.00 | 0.01 | 0.00 | 97 | 1010.2 |
| 20260509060003 | 75 | 76 | 0.0 | 0.0 | 0.00 | 0.01 | 0.00 | 97 | 1010.1 |
| 20260509054608 | 75 | 76 | 0.0 | 1.0 | 0.00 | 0.01 | 0.00 | 97 | 1010.1 |
| 20260509053130 | 75 | 76 | 0.0 | 1.0 | 0.00 | 0.01 | 0.00 | 96 | 1010.3 |
| 20260509051557 | 75 | 89 | 0.0 | 1.0 | 0.00 | 0.01 | 0.00 | 96 | 1010.2 |
| 20260509050055 | 75 | 329 | 0.0 | 1.0 | 0.00 | 0.01 | 0.00 | 96 | 1010.5 |